Regional Weather Roundup
Issued by NWS

Home | Current Version | Previous Version | Graphics & Text | Print | Product List | Glossary On
Versions: 1 2 3 4 5 6 7 8 9 10 11 12 13 14 15 16 17 18 19 20 21 22 23 24 25 26 27 28 29 30 31 32 33 34 35 36 37 38 39 40 41 42 43 44 45 46 47 48 49 50
000
ASUS44 KMEG 011410
RWRTN
TENNESSEE HOURLY STATE WEATHER ROUNDUP
NATIONAL WEATHER SERVICE MEMPHIS TN
800 AM CST SUN FEB 01 2015

TNZ002-004-019-021-049-052-054-088>092-011500-
WEST TENNESSEE

CITY           SKY/WX    TMP DP  RH WIND       PRES   REMARKS
MEMPHIS INTL   LGT RAIN  51  48  89 S20G25    29.86F
NWS MEMPHIS      N/A     49 N/A N/A MISG        N/A
JACKSON        LGT RAIN  47  43  86 S14G23    29.88F FOG
DYERSBURG      CLOUDY   N/A N/A N/A S10G21    29.84F
UNION CITY     CLOUDY    43  41  93 S17       29.81F
PARIS          CLOUDY    39  37  93 S17       29.88F WCI  30
LEXINGTON      CLOUDY    45  39  81 S10       29.92F
SAVANNAH       PTSUNNY   46  39  76 S13       29.96F
$$

TNZ008-025-027-028-033-062-065-066-011500-
NORTH MIDDLE TENNESSEE

CITY           SKY/WX    TMP DP  RH WIND       PRES   REMARKS
NASHVILLE      LGT RAIN  48  30  49 S12       30.02S
CLARKSVILLE    LGT RAIN  45  36  70 S13G23    29.94F
SMYRNA         CLOUDY    49  28  44 S8        30.04S
COOKEVILLE     SUNNY     46  25  42 S9        30.05R
CROSSVILLE     CLOUDY    44  21  40 S9        30.08F
$$

TNZ061-075-076-078-094-096-097-011500-
SOUTH MIDDLE TENNESSEE

CITY           SKY/WX    TMP DP  RH WIND       PRES   REMARKS
FAYETTEVILLE   SUNNY     45  25  45 MISG      30.06R
TULLAHOMA      MOSUNNY   46  27  46 S17       30.04F
WINCHESTER     PTSUNNY   48  27  43 S8        30.09R
MCMINNVILLE    MOSUNNY   48  28  46 VRB7      30.06S
COLUMBIA       CLOUDY    48  32  53 S9        29.99F
SHELBYVILLE    CLOUDY    50  30  46 S15       30.04F
$$

TNZ017-018-042-046-047-011500-
NORTHEAST TENNESSEE

CITY           SKY/WX    TMP DP  RH WIND       PRES   REMARKS
TRI CITIES     CLOUDY    36  24  62 NE3       30.11F
ELIZABETHTON   PTSUNNY   37  18  44 E7        30.10F WCI  32
$$

TNZ012-013-036-069-073-074-011500-
CENTRAL EAST TENNESSEE

CITY           SKY/WX    TMP DP  RH WIND       PRES   REMARKS
KNOXVILLE      CLOUDY    37  23  56 NE5       30.13F WCI  33
OAK RIDGE      CLOUDY    38  27  64 CALM      30.14F
GATLINBURG     SUNNY     36  25  64 CALM      30.12F
MORRISTOWN     SUNNY     37  18  44 E3        30.12F
$$

TNZ083-085-099-011500-
SOUTHEAST TENNESSEE

CITY           SKY/WX    TMP DP  RH WIND       PRES   REMARKS
CHATTANOOGA    CLOUDY    40  31  70 CALM      30.15S
$$

SKY/WX REPORTED AS FAIR MEANS FEW OR NO CLOUDS BELOW
12 THOUSAND FEET.




USA.gov is the U.S. government's official web portal to all federal, state and local government web resources and services.